Location: Crescent
(42.8242°N, 73.7329°W)
Time: 17:54:16
(UTC+00:00)

Vanguard 1 - Pass Details

Date: 17 February 2026
Orbit: 653 x 3818 km, 34.2° (Epoch: 5 March)

Event Time Altitude Azimuth Distance (km) Brightness Sun altitude
Rises 23:40:59 0° 267° (W) 5,836 16.0 -14.0°
Reaches altitude 10° 23:44:13 10° 265° (W) 5,169 15.2 -14.6°
Maximum altitude 00:00:45 64° 189° (S) 3,712 12.9 -17.6°
Enters shadow 00:19:42 19° 118° (ESE) 6,168 13.6 -21.1°
Drops below altitude 10° 00:23:44 10° 115° (ESE) 6,858 - -21.8°
Sets 00:28:54 0° 113° (ESE) 7,746 - -22.8°
